Regional Weather Roundup
Issued by NWS Jackson, KY

Home | Current Version | Previous Version | Text Only | Print | Product List | Glossary On
Versions: 1 2 3 4 5 6 7 8 9 10 11 12 13 14 15 16 17 18 19 20 21 22 23 24 25 26 27 28 29 30 31 32 33 34 35 36 37 38 39 40 41 42 43 44 45 46 47 48 49 50
000
ASUS43 KJKL 191619
RWRJKL

EAST KENTUCKY HOURLY WEATHER ROUNDUP
NATIONAL WEATHER SERVICE JACKSON KY
1200 PM EDT FRI SEP 19 2014

NOTE: "FAIR" INDICATES FEW OR NO CLOUDS BELOW 12,000 FEET WITH
NO SIGNIFICANT WEATHER AND/OR OBSTRUCTIONS TO VISIBILITY.

* THESE REPORTS ARE NOT UNDER NWS QUALITY CONTROL AND MAY NOT
  REPORT WEATHER SUCH AS PRECIPITATION AND FOG.

KYZ079-080-083-085-087-088-110-112-115-119-120-191700
...EASTERN KENTUCKY...

CITY           SKY/WX    TMP DP  RH WIND       PRES   REMARKS
JACKSON        SUNNY     67  55  65 VRB3      30.16S
LONDON         SUNNY     72  57  59 CALM      30.14S
SOMERSET*      SUNNY     72  55  56 SE5       30.14S
MONTICELLO*    SUNNY     73  60  63 CALM      30.14S
WILLIAMSBURG*  SUNNY     70  61  73 E3        30.14S
MIDDLESBORO*   SUNNY     70  60  71 CALM      30.14F
HARLAN APT*    SUNNY     73  59  60 MISG      30.15S
BLACK MTN*       N/A     64  57  77 E1          N/A
PIKEVILLE APT* SUNNY     66  59  77 CALM      30.16S
BIG SANDY*     SUNNY     68  59  71 CALM      30.16F
MOREHEAD APT*  SUNNY     70  50  49 E8G14     30.19S
$$

KYZ035-036-041-042-044-050-067-078-099-191700
...CENTRAL KENTUCKY...

CITY           SKY/WX    TMP DP  RH WIND       PRES   REMARKS
MT STERLING*   SUNNY     68  52  56 E8        30.18S
FLEMING/MASON* SUNNY     68  52  56 E10       30.19F
DANVILLE*      SUNNY     70  55  60 E7        30.16S
RICHMOND*      SUNNY     70  54  56 E7        30.14F
LEXINGTON      SUNNY     71  51  49 E12       30.16S
FRANKFORT      SUNNY     69  50  50 E10       30.15S
$$

KYZ091>093-OHZ055-061-077-WVZ005-015-034-035-042-191700
...SOUTHERN OHIO/WEST VIRGINIA...

CITY           SKY/WX    TMP DP  RH WIND       PRES   REMARKS
COVINGTON      MOSUNNY   69  49  48 E9        30.19R
COLUMBUS       SUNNY     70  48  45 E9        30.21F
DAYTON         MOSUNNY   67  50  54 SE10      30.22F
WILMINGTON     SUNNY     67  51  56 NE8       30.20F
HUNTINGTON     SUNNY     68  54  60 N5        30.16S
CHARLESTON     MOSUNNY   70  58  65 CALM      30.16S
PINEVILLE*     MOSUNNY   75  64  68 MISG      30.22S
BECKLEY        CLOUDY    66  57  72 SE8G18    30.22R
BLUEFIELD      MOSUNNY   70  57  63 VRB5G20   30.23S
$$

VAZ002-007-008-TNZ017-027-036-066-071-191700
...SOUTHWEST VIRGINIA/EAST TENNESSEE...

CITY           SKY/WX    TMP DP  RH WIND       PRES   REMARKS
WISE*          PTSUNNY   72  55  56 SE9       30.21R
JONESVILLE*    SUNNY     73  59  60 CALM      30.16S
ABINGDON*      MOSUNNY   76  60  57 S6        30.18S
BRISTOL        MOSUNNY   77  59  53 S7        30.15S
KNOXVILLE      MOSUNNY   76  59  55 CALM      30.10S
OAK RIDGE      SUNNY     74  60  61 VRB3      30.13S
CROSSVILLE     SUNNY     74  57  55 SE7       30.14S
NASHVILLE      SUNNY     77  60  55 VRB3      30.08F
$$

...KEY TO REMARKS...
VSB - VISIBILITY IN MILES
WCI - WIND CHILL INDEX
HX  - HEAT INDEX

$$


USA.gov is the U.S. government's official web portal to all federal, state and local government web resources and services.